Location: San Martino del Lago
(45.0667°N, 10.3000°E)
Time: 06:11:30
(UTC+00:00)

Daily predictions for brighter satellites

Satellite Brightness Start Highest point End
(mag) Time Altitude Azimuth Time Altitude Azimuth Time Altitude Azimuth
Cosmos 1980 Rocket 2.4 18:48:58 10° NNW 18:54:35 59° ENE 19:00:08 10° SE
Cosmos 1727 Rocket 4.4 18:50:32 10° NNW 18:56:53 73° W 19:03:11 10° S
Lacrosse 5 2.6 18:52:28 10° NW 18:57:18 43° NNE 19:02:09 10° ESE
IRIDIUM 104 4.3 18:52:36 10° S 18:57:46 70° E 19:02:59 10° N
Resurs 01 Rocket 2.7 18:58:05 10° SE 19:01:51 28° ENE 19:05:38 10° N
Cosmos 1833 Rocket 3.1 18:56:55 10° SW 19:02:30 69° WNW 19:08:09 10° NNE
USA 238 DEB 3.7 18:59:24 10° SSW 19:05:49 58° ESE 19:12:32 10° NE
USA 238 3.7 18:59:30 10° SSW 19:05:56 57° ESE 19:12:37 10° NE
SPOT 3 Rocket 3.9 19:01:43 10° SE 19:06:41 48° ENE 19:11:40 10° N
IRIDIUM 114 4.3 19:01:42 10° S 19:06:55 84° E 19:12:09 10° N
Cosmos 1697 Rocket 3.2 19:01:23 10° NNW 19:06:57 64° WSW 19:12:28 10° S
GP-B 4.4 19:04:13 10° NNE 19:07:40 22° E 19:11:05 10° SE
Cosmos 1867 3.6 19:02:32 10° SSW 19:07:58 88° ESE 19:13:28 10° NE
MOS 1 Rocket 4.1 19:03:22 10° N 19:08:46 69° WNW 19:13:56 10° SSW
CENTAUR R/B 3.0 19:04:24 10° S 19:09:37 36° ESE 19:15:41 10° NE
Cosmos 1666 Rocket 3.6 19:05:39 10° S 19:09:53 59° E 19:14:11 10° NNE
Cosmos 1954 Rocket 4.1 19:07:23 10° S 19:12:36 60° ESE 19:17:51 10° NNE
DMSP B5D2-2 4.0 19:09:55 10° NNE 19:15:09 71° ESE 19:20:24 10° S
IRIDIUM 103 4.5 19:10:51 10° S 19:16:03 82° W 19:21:19 10° N
FREGAT/IRIS 3.1 19:14:00 10° S 19:16:33 50° W 19:19:08 10° NNW
Cosmos 1821 Rocket 4.1 19:11:10 10° S 19:17:21 87° W 19:23:40 10° N
Ariane Rocket 3.5 19:12:33 10° S 19:17:33 64° WSW 19:22:35 10° NNW
Cosmos 405 Rocket 3.9 19:15:00 10° SE 19:17:52 22° E 19:20:47 10° NE
Intercosmos 25 3.1 19:15:51 10° NNW 19:19:29 75° W 19:22:38 10° S
Cosmos 1812 3.8 19:17:19 10° NNW 19:21:01 47° W 19:24:43 10° SSW
Cosmos 407 Rocket 4.4 19:17:50 10° SW 19:23:03 56° WNW 19:28:15 10° NNE
SJ-6B 3.5 19:21:37 10° S 19:25:34 57° W 19:29:28 10° NNW
NOSS 2 (A) 3.9 19:26:23 10° NW 19:28:54 82° SW 19:30:20 20° SSE
Cosmos 1140 Rocket 4.1 19:23:52 10° SSW 19:29:04 63° WNW 19:34:18 10° NNE
Cosmos 1763 Rocket 4.3 19:24:25 10° N 19:29:24 38° ENE 19:33:12 16° ESE
Cosmos 1437 Rocket 4.3 19:27:30 10° NNE 19:30:20 19° ENE 19:31:55 15° E
Resurs 1-3 3.6 19:26:14 10° SSE 19:30:36 80° ENE 19:35:01 10° N
OBJECT-B 0.8 19:29:58 10° S 19:33:15 83° WSW 19:36:34 10° NNW
Cosmos 2084 Rocket 3.7 19:30:42 10° SSW 19:34:39 44° ESE 19:38:43 10° NE
H-2A R/B 4.3 19:32:00 10° NE 19:35:39 30° E 19:38:17 16° SSE
Cosmos 1633 Rocket 3.1 19:32:19 10° S 19:36:44 86° W 19:41:11 10° N
Cosmos 1184 Rocket 2.7 19:34:20 10° S 19:37:38 84° E 19:40:57 10° NNE
Cosmos 921 Rocket 2.8 19:37:42 10° NNW 19:41:56 77° ENE 19:45:04 17° SSE
Cosmos 1535 Rocket 4.4 19:37:00 10° S 19:43:08 85° E 19:49:16 10° N
Cosmos 2123 Rocket 4.0 19:36:53 10° N 19:43:10 89° E 19:49:26 10° S
MetOp-B 4.4 19:40:53 16° SE 19:44:56 52° ENE 19:50:08 10° N
Cosmos 1605 Rocket 3.9 19:45:31 10° S 19:51:34 68° E 19:57:36 10° NNE
Okean 1 3.6 19:50:16 10° N 19:54:13 48° ENE 19:56:09 26° SE
CZ-2C R/B 3.6 19:49:41 10° N 19:54:41 50° WNW 19:59:44 10° SW
NOSS 3-2 (A) 3.7 19:50:21 10° SW 19:56:01 70° NW 20:02:35 10° NE
USA 267 3.6 19:52:04 10° ENE 19:58:12 41° SE 20:04:18 10° SSW
Cosmos 2219 Rocket 4.3 19:56:06 10° N 19:59:00 14° NE 20:01:53 10° ENE
Meteor 2-4 Rocket 4.5 19:55:04 10° N 20:00:10 35° ENE 20:02:34 24° ESE
Cosmos 540 Rocket 4.3 19:57:31 10° N 20:02:19 37° ENE 20:04:39 24° ESE
SL-16 R/B 2.3 19:57:37 10° NNW 20:03:16 62° ENE 20:06:28 26° SE
SL-4 R/B 3.6 20:00:06 10° WNW 20:03:40 30° N 20:07:00 10° ENE
BREEZE-M DEB (TANK) 3.3 20:01:54 10° WNW 20:04:37 48° N 20:11:29 10° ENE
SL-27 R/B 2.4 20:04:28 39° SSE 20:05:14 48° ESE 20:08:27 10° NNE
Cosmos 1470 Rocket 3.7 20:02:11 10° SSW 20:06:34 75° W 20:10:56 10° N
NOSS 3-2 (C) 3.3 20:00:56 10° SW 20:06:38 90° NW 20:13:10 10° NE
Cosmos 2242 Rocket 3.5 20:02:28 10° N 20:06:54 70° E 20:09:08 28° SSE
Cosmos 2082 Rocket 3.9 20:06:05 10° WSW 20:11:17 36° NW 20:16:30 10° NNE
BREEZE-M DEB (TANK) 3.0 20:09:52 10° WNW 20:12:06 31° N 20:12:31 28° NNE
ERS-1 Rocket 3.5 20:16:14 30° ESE 20:18:03 42° ENE 20:22:46 10° N
Meteor 1-14 Rocket 4.3 20:13:21 15° S 20:18:19 70° E 20:24:16 10° NNE
Cosmos 2322 Rocket 2.2 20:14:54 10° NNW 20:20:37 69° ENE 20:23:15 33° SE
Cosmos 1850 Rocket 4.0 20:18:10 10° SSW 20:23:28 84° WNW 20:28:46 10° NNE
Cosmos 1500 3.6 20:25:36 42° E 20:25:36 42° E 20:28:59 10° NNE
SPOT 1/Viking Rocket 3.5 20:23:32 33° SSE 20:25:56 73° ENE 20:31:10 10° N
Cosmos 841 Rocket 3.6 20:22:52 10° NNW 20:28:04 62° ENE 20:29:56 38° SE
Terra 2.7 20:27:56 30° E 20:28:56 33° ENE 20:33:12 10° N
Cosmos 2360 Rocket 2.7 20:24:16 10° NNW 20:29:45 46° ENE 20:31:48 33° ESE
USA 276 2.0 20:27:03 10° WNW 20:30:10 86° NW 20:30:10 86° NW
Meteor 1-18 Rocket 4.3 20:25:03 10° NNW 20:30:37 75° W 20:33:52 26° S
X-37B 1.4 20:27:49 10° W 20:30:22 41° SW 20:30:22 41° SW
IGS 5A 3.5 20:29:39 38° S 20:31:10 77° WSW 20:35:21 10° NNW
ATLAS 3B R/B 2.7 20:25:19 10° SSW 20:31:40 52° ESE 20:38:05 10° NE
Okean 3 4.3 20:27:53 10° N 20:31:50 34° ENE 20:32:07 34° E
Cosmos 1238 Rocket 3.7 20:30:32 18° SW 20:32:15 33° WNW 20:35:02 10° N
USA 234 3.9 20:29:00 19° E 20:33:33 50° NNE 20:39:48 10° NW
Cosmos 1666 4.4 20:37:36 20° ENE 20:37:36 20° ENE 20:39:23 10° NE
Cosmos 1980 Rocket 4.2 20:33:52 10° NW 20:38:07 22° W 20:42:20 10° SSW
Resurs 01 Rocket 3.2 20:34:56 13° SSW 20:38:16 31° W 20:42:13 10° NNW
Iridium 4 Rocket 3.7 20:38:43 37° E 20:38:43 37° E 20:42:22 10° NNE
Cosmos 44 3.3 20:34:02 10° NW 20:39:00 82° SW 20:40:36 45° SSE
Lacrosse 5 2.5 20:35:30 10° WNW 20:40:20 45° SW 20:41:50 35° S
CARTOSAT-1 3.6 20:40:31 55° ESE 20:41:13 66° ENE 20:45:31 10° N
GP-B 4.5 20:41:00 10° NNW 20:45:06 37° W 20:48:37 13° SW
Cosmos 2061 Rocket 4.2 20:50:46 42° SE 20:52:11 50° E 20:58:08 10° NNE
Spot 2 Rocket 4.0 20:51:17 30° SSW 20:53:34 53° W 20:58:33 10° NNW
Cosmos 1814 Rocket 3.9 20:50:30 10° NNW 20:55:46 85° ENE 20:56:56 55° SSE
COSMOS 2428 4.0 20:51:10 10° N 20:56:04 28° NE 20:57:48 24° E
Cosmos 1802 Rocket 4.0 20:54:58 42° SSE 20:57:09 67° E 21:03:25 10° NNE
Cosmos 1869 Rocket 3.6 20:57:44 52° SSW 20:58:46 76° W 21:03:15 10° N
Cosmos 2237 Rocket 4.4 20:57:00 10° N 21:00:01 14° NE 21:02:46 11° ENE
CENTAUR R/B 3.4 20:54:10 10° WSW 21:00:02 50° NW 21:07:00 10° NNE
Okean 1-7 3.8 20:56:39 10° NNW 21:00:46 46° W 21:01:52 37° SW
Cosmos 1437 Rocket 4.2 21:03:18 10° NNW 21:06:38 30° W 21:07:19 28° WSW
Cosmos 1570 Rocket 4.5 21:08:33 10° NNW 21:13:45 54° WSW 21:14:58 44° SSW
Cosmos 2333 Rocket 2.8 21:08:46 10° NNW 21:14:17 43° ENE 21:15:19 40° E
ATLAS 5 CENTAUR R/B 2.6 21:11:23 10° NNW 21:14:18 56° NE 21:14:58 51° E
SPOT 5 2.8 21:17:39 61° WSW 21:17:50 61° WSW 21:22:14 10° NNW
Cosmos 1066 Rocket 4.2 21:15:32 10° N 21:21:07 59° ENE 21:21:30 57° E
Cosmos 1486 Rocket 4.5 21:22:07 45° ENE 21:22:07 45° ENE 21:26:14 10° NNE
Cosmos 2208 Rocket 4.4 21:20:10 10° NNW 21:25:14 51° WSW 21:25:57 47° SW
Cosmos 1733 Rocket 3.6 21:29:41 53° NNE 21:29:41 53° NNE 21:33:11 10° NNE
Meteor 1-11 Rocket 3.7 21:31:46 60° SSW 21:32:50 81° W 21:38:40 10° N
Cosmos 968 Rocket 4.0 21:37:25 47° ENE 21:37:25 47° ENE 21:41:22 10° NNE
Lacrosse 4 Rocket 2.1 21:37:37 50° N 21:37:37 50° N 21:40:54 10° NNE
Tsikada Rocket 3.8 21:31:34 10° N 21:37:56 82° E 21:38:46 68° SSE
USA 267 3.5 21:34:56 10° NE 21:41:27 68° NNW 21:47:55 10° WSW
SL-4 R/B 3.5 21:40:21 10° NW 21:42:59 32° NNW 21:42:59 32° NNW
Cosmos 2219 Rocket 2.3 21:38:28 10° NNW 21:44:09 64° ENE 21:44:23 63° ENE
SL-16 R/B 4.0 21:42:43 10° NW 21:46:51 21° W 21:48:19 19° WSW
Cosmos 1242 Rocket 4.4 21:48:50 10° NNW 21:50:53 31° NNW 21:50:53 31° NNW
Cosmos 1725 Rocket 4.2 21:55:18 51° SW 21:56:43 66° W 22:03:02 10° N
Meteor 1-23 Rocket 4.2 21:51:12 10° NNW 21:57:02 76° W 21:57:14 75° WSW
Cosmos 2322 3.7 21:51:51 10° NNW 21:57:25 73° WSW 21:57:25 73° WSW
Spot 4 4.4 21:58:19 51° NE 21:58:19 51° NE 22:02:19 10° N
Cosmos 1536 4.4 22:03:04 33° NW 22:03:04 33° NW 22:05:55 10° N
Cosmos 2322 Rocket 4.1 22:00:11 10° WNW 22:04:02 19° W 22:05:03 18° WSW
Cosmos 1378 Rocket 4.5 22:01:38 10° N 22:04:52 48° NNW 22:04:52 48° NNW
Terra 3.2 22:06:50 30° W 22:06:50 30° W 22:10:52 10° NW
Cosmos 2360 Rocket 3.5 22:08:42 10° NW 22:13:30 29° WSW 22:13:33 29° WSW
SL-16 R/B 4.2 22:11:43 10° N 22:15:46 19° NE 22:17:41 17° ENE
USA 234 3.2 22:16:20 66° SW 22:16:25 66° SW 22:22:57 10° NW
ATLAS 3B R/B 3.8 22:16:25 10° WSW 22:22:33 39° NW 22:28:47 10° NNE
Cosmos 1354 Rocket 4.5 22:23:57 58° NNE 22:23:57 58° NNE 22:28:13 10° NNE
MOS 1-B Rocket 3.9 22:17:23 10° N 22:22:56 67° WNW 22:23:10 66° W
Cosmos 1975 Rocket 4.5 22:24:28 10° N 22:27:17 36° NNE 22:27:17 36° NNE
Cosmos 2297 Rocket 3.6 22:32:12 28° ENE 22:32:12 28° ENE 22:35:18 10° NE
Meteor 1-21 4.5 22:27:47 10° N 22:33:00 64° NE 22:33:00 64° NE
Thor Agena Rocket 3.9 22:30:49 10° NNE 22:35:03 60° N 22:35:03 60° N
Cosmos 1980 4.0 22:31:47 10° NNW 22:36:58 61° NE 22:36:58 61° NE
Timation 2 Rocket 4.1 22:39:51 60° ENE 22:39:51 60° ENE 22:44:52 10° NNE
COSMOS 2428 3.3 22:35:05 10° NW 22:39:48 49° WNW 22:39:48 49° WNW
Cosmos 2219 4.1 22:46:31 40° ENE 22:46:31 40° ENE 22:50:18 10° NNE
Cosmos 2237 Rocket 2.5 22:39:34 10° NNW 22:44:34 62° NNE 22:44:34 62° NNE
Cosmos 1464 Rocket 4.0 22:46:12 72° NE 22:46:12 72° NE 22:51:54 10° N
NOSS 0 Rocket 4.0 22:46:11 10° NNW 22:51:50 69° WNW 22:51:50 69° WNW
Nadezhda 4 Rocket 4.1 22:49:01 10° N 22:54:56 64° ENE 22:54:56 64° ENE
Cosmos 2333 Rocket 3.5 22:53:21 10° NW 22:57:19 30° W 22:57:19 30° W
ALOS 2 4.4 23:17:00 27° NW 23:17:00 27° NW 23:19:14 10° NNW
Lacrosse 4 Rocket 4.4 23:14:55 10° NW 23:16:11 11° NW 23:17:27 10° NNW
Cosmos 1092 Rocket 4.2 23:10:53 10° N 23:16:44 59° ENE 23:16:44 59° ENE
Cosmos 2034 Rocket 4.0 23:19:27 78° NNW 23:19:27 78° NNW 23:25:26 10° N
Cosmos 2227 Rocket 2.7 23:22:00 54° NE 23:22:00 54° NE 23:26:24 10° NNE
Cosmos 2219 Rocket 4.1 23:23:29 10° NW 23:26:05 19° W 23:26:05 19° W
Meteor 1-12 Rocket 4.5 23:28:42 72° N 23:28:42 72° N 23:34:06 10° N
Resurs 1-4 Rocket 4.3 23:33:10 10° ENE 23:35:32 14° E 23:35:32 14° E
Cosmos 2082 4.2 23:48:47 55° NE 23:48:47 55° NE 23:53:14 10° NNE
Cosmos 1607 4.1 23:41:39 10° NW 23:47:26 72° NW 23:47:26 72° NW
Cosmos 1375 Rocket 4.5 23:48:19 83° NNW 23:48:19 83° NNW 23:54:48 10° NNE
USA 229 DEB 4.1 23:53:16 47° E 23:53:16 47° E 23:58:59 10° NE
USA 229 4.1 23:53:24 47° E 23:53:24 47° E 23:59:04 10° NE
